Home   Weather   San Buenaventura   Past weeks
Flag for USA

Past Weather in San Buenaventura, California, USA — Yesterday and Last 2 Weeks

Now
73 °F

Sunny.


Feels Like: 75 °F
Forecast: 72 / 64 °F
Wind: 9 mph from West

Location: Oxnard Airport

Current Time: Aug 23, 2019 at 7:27:45 pm

Latest Report: Aug 23, 2019 at 5:51 pm


Visibility: 10 mi

Pressure: 29.81 "Hg

Humidity: 69%

Dew Point: 62 °F

Location of San BuenaventuraLocation

Past Weather in San Buenaventura — Graph

°F

San Buenaventura Temperature Yesterday

Maximum temperature yesterday: 74 °F (at 1:51 pm)
Minimum temperature yesterday: 62 °F (at 4:51 am)
Average temperature yesterday: 69 °F

High & Low Weather Summary for the Past Weeks

 TemperatureHumidityPressure
High77 °F (Aug 21, 1:51 pm)96% (Aug 13, 1:17 am)30.00 "Hg (Aug 13, 1:17 am)
Low58 °F (Aug 9, 5:51 am)54% (Aug 21, 1:51 pm)29.73 "Hg (Aug 22, 1:51 am)
Average65 °F80%29.91 "Hg
* Reported Aug 8 5:51 pm — Aug 23 5:51 pm, San Buenaventura. Weather by CustomWeather, © 2019

Note: Actual official high and low records may vary slightly from our data, if they occured in-between our weather recording intervals... More about our weather records

Advertising

San Buenaventura Weather History for the Previous 24 Hours

Scroll right to see more
 ConditionsComfort  
Time TempWeatherWind HumidityBarometerVisibility
5:51 pm
Fri, Aug 23
73 °FSunny.9 mph69%29.81 "Hg10 mi
4:51 pm75 °FSunny.9 mph62%29.82 "Hg10 mi
3:51 pm74 °FSunny.7 mph67%29.83 "Hg10 mi
2:51 pm76 °FSunny.9 mph58%29.85 "Hg10 mi
1:51 pm76 °FSunny.8 mph58%29.86 "Hg10 mi
12:51 pm76 °FSunny.10 mph58%29.88 "Hg10 mi
11:51 am77 °FSunny.9 mph54%29.87 "Hg10 mi
10:51 am76 °FPartly sunny.No wind58%29.87 "Hg9 mi
9:51 am73 °FOvercast.No wind62%29.88 "Hg10 mi
8:51 am71 °FOvercast.9 mph66%29.87 "Hg10 mi
7:51 am70 °FOvercast.6 mph73%29.85 "Hg8 mi
6:51 am69 °FOvercast.5 mph76%29.84 "Hg8 mi
5:51 am69 °FOvercast.7 mph76%29.83 "Hg9 mi
4:51 am69 °FOvercast.3 mph79%29.81 "Hg10 mi
4:14 am70 °FOvercast.No wind76%29.81 "Hg10 mi
3:51 am70 °FOvercast.3 mph76%29.81 "Hg10 mi
2:51 am69 °FOvercast.3 mph81%29.81 "Hg10 mi
1:51 am70 °FOvercast.No wind79%29.80 "Hg10 mi
12:51 am69 °FOvercast.No wind81%29.78 "Hg9 mi
11:51 pm
Thu, Aug 22
68 °FOvercast.5 mph84%29.78 "Hg9 mi
10:51 pm69 °FOvercast.No wind81%29.78 "Hg10 mi
10:21 pm69 °FOvercast.No wind81%29.78 "Hg10 mi
9:51 pm68 °FLow clouds.No wind82%29.78 "Hg10 mi
8:51 pm69 °FOvercast.3 mph79%29.78 "Hg10 mi
8:20 pm69 °FOvercast.3 mph79%29.78 "Hg10 mi
7:51 pm69 °FLow clouds.5 mph79%29.77 "Hg10 mi
7:21 pm69 °FLow clouds.6 mph79%29.77 "Hg9 mi
Weather by CustomWeather, © 2019

See weather overview